Location: Eymir
(36.7333°N, 29.7833°E)
Time: 18:07:16
(UTC+00:00)

Thor Agena Rocket - Visible Passes

Search period start: 11 April 2026 00:00
Search period end: 21 April 2026 00:00
Orbit: 754 x 802 km, 99.1° (Epoch: 11 April)

Date Brightness Start Highest point End Pass type
(mag) Time Alt. Az. Time Alt. Az. Time Alt. Az.
12 Apr 6.4 17:10:06 10° SW 17:13:33 18° W 17:17:00 10° NW visible
15 Apr 6.4 17:10:24 10° SW 17:13:52 18° W 17:17:19 10° NW visible
18 Apr 6.4 17:10:42 10° SW 17:14:10 18° W 17:17:39 10° NW visible
